Weather History for KNID - February, 2012

Change the Weather History Date:

Tuesday, February 21, 2012

  Actual Average Record
Temperature  
Mean Temperature 47 °F -  
Max Temperature 66 °F 59 °F 76 °F (2002)
Min Temperature 28 °F 38 °F 26 °F (2013)
Degree Days  
Heating Degree Days 18    
Moisture  
Dew Point 19 °F    
Average Humidity 36    
Maximum Humidity 63    
Minimum Humidity 17    
Precipitation  
Precipitation 0.00 in - - ()
Sea Level Pressure  
Sea Level Pressure 30.21 in    
Wind  
Wind Speed 3 mph (SSE)    
Max Wind Speed 10 mph    
Max Gust Speed -    
Visibility 10 miles    
Events      
Averages and records for this station are not official NWS values.
T = Trace of Precipitation, MM = Missing Value Source: NWS Daily Summary

Daily Weather History Graph

Daily Weather History Graph

Search for Another Location

Airport or City:

Trip Planner

Search our weather history database for the weather conditions in past years. The results will help you decide how hot, cold, wet, or windy it might be!

Date:

Astronomy

Feb. 21, 2012 Rise Set
Actual Time 6:31 AM PST 5:38 PM PST
Civil Twilight 6:05 AM PST 6:04 PM PST
Nautical Twilight 5:35 AM PST 6:33 PM PST
Astronomical Twilight 5:06 AM PST 7:03 PM PST
Moon 6:03 AM PST (2/21) 5:47 PM PST (2/21)
Length of Visible Light 11h 58m
Length of Day
11h 06m
Waning Crescent, 0% of the Moon is Illuminated
Feb 21
Waning Crescent
Feb 21
New
Feb 29
First Quarter
Mar 8
Full
Mar 14
Last Quarter

Hourly Weather History & Observations

Time (PST) Temp. Windchill Dew Point Humidity Pressure Visibility Wind Dir Wind Speed Gust Speed Precip Events Conditions
12:56 AM 32.0 °F - 15.1 °F 50% 30.18 in 10.0 mi Calm Calm - N/A   Clear
1:56 AM 34.0 °F - 19.0 °F 54% 30.17 in 10.0 mi Calm Calm - N/A   Clear
2:56 AM 32.0 °F 26.4 °F 18.0 °F 56% 30.18 in 10.0 mi South 5.8 mph - N/A   Clear
3:56 AM 33.1 °F 26.1 °F 19.9 °F 59% 30.19 in 10.0 mi SSW 8.1 mph - N/A   Clear
4:56 AM 28.0 °F - 17.1 °F 63% 30.21 in 10.0 mi Calm Calm - N/A   Clear
5:56 AM 28.0 °F 24.2 °F 17.1 °F 63% 30.24 in 10.0 mi SSW 3.5 mph - N/A   Clear
6:56 AM 30.0 °F 26.5 °F 17.1 °F 59% 30.26 in 10.0 mi SSE 3.5 mph - N/A   Mostly Cloudy
7:56 AM 39.0 °F - 19.0 °F 45% 30.27 in 10.0 mi Calm Calm - N/A   Mostly Cloudy
8:56 AM 46.0 °F - 21.0 °F 37% 30.25 in 10.0 mi Calm Calm - N/A   Mostly Cloudy
9:56 AM 53.1 °F - 21.9 °F 30% 30.25 in 10.0 mi NNE 3.5 mph - N/A   Clear
10:56 AM 57.0 °F - 21.0 °F 25% 30.25 in 10.0 mi Calm Calm - N/A   Mostly Cloudy
11:56 AM 61.0 °F - 19.9 °F 21% 30.23 in 10.0 mi ESE 4.6 mph - N/A   Mostly Cloudy
12:56 PM 64.0 °F - 19.9 °F 18% 30.21 in 10.0 mi SE 5.8 mph - N/A   Mostly Cloudy
1:56 PM 64.0 °F - 19.0 °F 18% 30.18 in 10.0 mi Variable 3.5 mph - N/A   Mostly Cloudy
2:56 PM 66.0 °F - 19.9 °F 17% 30.17 in 10.0 mi SE 5.8 mph - N/A   Mostly Cloudy
3:56 PM 66.0 °F - 21.0 °F 18% 30.18 in 10.0 mi SE 3.5 mph - N/A   Mostly Cloudy
4:56 PM 64.9 °F - 19.9 °F 18% 30.18 in 10.0 mi SE 4.6 mph - N/A   Mostly Cloudy
5:56 PM 59.0 °F - 19.9 °F 22% 30.20 in 10.0 mi SE 6.9 mph - N/A   Mostly Cloudy
6:56 PM 54.0 °F - 19.0 °F 25% 30.22 in 10.0 mi SW 5.8 mph - N/A   Mostly Cloudy
7:56 PM 53.1 °F - 19.9 °F 27% 30.21 in 10.0 mi Calm Calm - N/A   Mostly Cloudy
8:56 PM 50.0 °F - 21.0 °F 32% 30.22 in 10.0 mi Calm Calm - N/A   Mostly Cloudy
9:56 PM 48.0 °F - 19.9 °F 33% 30.22 in 10.0 mi South 10.4 mph - N/A   Mostly Cloudy
10:56 PM 48.9 °F - 21.0 °F 33% 30.23 in 10.0 mi SW 3.5 mph - N/A   Mostly Cloudy
11:56 PM 43.0 °F - 19.9 °F 40% 30.23 in 10.0 mi Calm Calm - N/A   Clear